DG8SF-13 Weather Reports


time (UTC)temp
C
wind
direction
speed
KPH
gust
KPH
rain 1hr
cm
rain 24hr
cm
rain mn
cm
humidity
%
barometer
mb
20260507131117 11 225 1.6 6.4 0.00 0.76 0.20 87 1014.2
20260507130551 11 225 3.2 11.3 0.00 0.76 0.20 87 1014.2
20260507130030 11 225 3.2 11.3 0.00 0.76 0.20 86 1014.1
20260507125503 12 248 3.2 11.3 0.00 0.76 0.20 83 1014.1
20260507124958 12 225 3.2 11.3 0.00 0.76 0.20 80 1014.0
20260507124429 13 225 3.2 6.4 0.00 0.76 0.20 76 1014.0
20260507123918 13 202 3.2 6.4 0.00 0.76 0.20 77 1013.9
20260507123405 13 202 3.2 6.4 0.00 0.76 0.20 74 1013.9
20260507122855 13 202 3.2 6.4 0.00 0.76 0.20 73 1013.8
20260507122341 13 202 3.2 6.4 0.00 0.76 0.20 76 1013.8
20260507121829 13 248 3.2 11.3 0.00 0.76 0.20 78 1013.8
20260507121316 13 248 3.2 6.4 0.00 0.76 0.20 78 1013.6
20260507120806 12 248 3.2 11.3 0.00 0.76 0.20 78 1013.8
20260507120254 12 248 4.8 6.4 0.00 0.76 0.20 77 1013.9
20260507115741 12 248 4.8 14.5 0.00 0.76 0.20 74 1013.9
20260507115229 13 225 3.2 14.5 0.00 0.76 0.20 68 1013.9
20260507114718 13 225 3.2 11.3 0.00 0.76 0.20 69 1013.8
20260507114203 13 225 3.2 6.4 0.00 0.76 0.20 68 1013.9
20260507113655 13 225 3.2 11.3 0.00 0.76 0.20 69 1013.9
20260507113140 13 225 1.6 6.4 0.00 0.76 0.20 72 1013.8
20260507112629 13 225 1.6 11.3 0.00 0.76 0.20 71 1013.9
20260507112116 13 225 1.6 6.4 0.00 0.76 0.20 67 1013.9
20260507111605 13 158 3.2 6.4 0.00 0.76 0.20 69 1013.9
20260507111053 13 248 3.2 6.4 0.00 0.76 0.20 68 1013.8
20260507110541 14 248 3.2 6.4 0.00 0.76 0.20 70 1013.8
20260507110029 13 270 3.2 6.4 0.00 0.76 0.20 68 1013.8
20260507105517 13 225 3.2 6.4 0.00 0.76 0.20 72 1013.8
20260507105004 13 225 3.2 6.4 0.00 0.76 0.20 73 1013.9
20260507104454 13 225 3.2 14.5 0.00 0.76 0.20 71 1014.0
20260507103940 13 248 3.2 11.3 0.00 0.76 0.20 71 1013.9
20260507103431 14 248 3.2 6.4 0.00 0.76 0.20 68 1013.9
20260507102916 13 248 4.8 6.4 0.00 0.76 0.20 69 1013.9
20260507102406 13 248 3.2 11.3 0.00 0.76 0.20 73 1013.9
20260507101852 13 68 3.2 6.4 0.00 0.76 0.20 71 1014.0
20260507101342 13 248 3.2 6.4 0.00 0.76 0.20 73 1014.0
20260507100829 12 248 3.2 11.3 0.00 0.76 0.20 75 1013.9
20260507100318 12 248 1.6 3.2 0.00 0.76 0.20 76 1014.0
20260507095804 12 248 3.2 6.4 0.00 0.76 0.20 77 1014.0
20260507095254 12 248 3.2 6.4 0.00 0.76 0.20 76 1014.1
20260507094741 12 248 3.2 6.4 0.00 0.76 0.20 79 1014.0
20260507094228 11 248 4.8 11.3 0.00 0.76 0.20 77 1014.0
20260507093715 11 248 3.2 11.3 0.00 0.76 0.20 78 1014.0
20260507093205 11 248 3.2 6.4 0.00 0.76 0.20 80 1013.9
20260507092652 11 248 3.2 6.4 0.00 0.76 0.20 81 1013.9
20260507092144 11 270 3.2 6.4 0.00 0.76 0.20 83 1013.8
20260507091628 11 270 3.2 11.3 0.00 0.76 0.20 82 1013.9
20260507091117 11 248 3.2 14.5 0.05 0.76 0.20 83 1013.8
20260507090610 11 225 1.6 11.3 0.05 0.76 0.20 83 1013.7
20260507090052 11 225 1.6 6.4 0.05 0.76 0.20 90 1013.6
20260507085540 10 225 1.6 6.4 0.05 0.76 0.20 90 1013.6
20260507085029 10 225 3.2 6.4 0.05 0.76 0.20 91 1013.6
20260507084518 10 225 1.6 6.4 0.05 0.76 0.20 93 1013.6
20260507084004 10 225 3.2 6.4 0.05 0.76 0.20 94 1013.6
20260507083453 9 248 3.2 11.3 0.05 0.76 0.20 94 1013.6
20260507082940 9 248 3.2 6.4 0.05 0.76 0.20 94 1013.6
20260507082429 9 248 3.2 6.4 0.05 0.76 0.20 94 1013.5
20260507081916 10 248 3.2 11.3 0.05 0.76 0.20 94 1013.4
20260507081407 9 248 3.2 14.5 0.05 0.76 0.20 94 1013.4
20260507080852 9 248 3.2 11.3 0.00 0.71 0.15 95 1013.3
20260507080341 9 248 3.2 11.3 0.00 0.71 0.15 95 1013.3
20260507075829 9 248 3.2 11.3 0.00 0.71 0.15 94 1013.4
20260507075319 9 270 1.6 11.3 0.00 0.71 0.15 95 1013.1
20260507074804 9 270 3.2 3.2 0.00 0.71 0.15 95 1013.1
20260507074253 9 292 3.2 6.4 0.00 0.71 0.15 95 1013.0
20260507073740 9 248 3.2 6.4 0.00 0.71 0.15 95 1013.0
20260507073229 8 225 4.8 11.3 0.00 0.71 0.15 94 1012.9
20260507072717 9 225 4.8 11.3 0.05 0.71 0.15 95 1012.8
20260507072205 8 225 4.8 11.3 0.05 0.71 0.15 95 1012.8
20260507071652 9 225 3.2 11.3 0.05 0.71 0.15 96 1012.8
20260507071139 8 270 1.6 6.4 0.05 0.71 0.15 96 1012.7
20260507070629 8 270 1.6 6.4 0.05 0.71 0.15 96 1012.7
20260507070117 8 270 3.2 6.4 0.05 0.71 0.15 96 1012.7
20260507065605 8 248 3.2 6.4 0.08 0.71 0.15 96 1012.7
20260507065053 8 248 3.2 6.4 0.08 0.71 0.15 96 1012.6
20260507064541 8 248 3.2 11.3 0.13 0.71 0.15 96 1012.6
20260507064027 8 248 3.2 6.4 0.13 0.71 0.15 96 1012.6
20260507063516 8 248 3.2 11.3 0.13 0.71 0.15 96 1012.6
20260507063004 8 292 3.2 6.4 0.13 0.71 0.15 96 1012.5
20260507062455 7 292 3.2 6.4 0.08 0.69 0.13 96 1012.5
20260507061941 7 248 3.2 11.3 0.08 0.69 0.13 96 1012.4
20260507061428 7 248 4.8 11.3 0.08 0.69 0.13 96 1012.4
20260507060917 7 225 3.2 11.3 0.08 0.69 0.13 96 1012.4
20260507060404 7 248 3.2 11.3 0.13 0.69 0.13 96 1012.4
20260507055854 7 248 3.2 6.4 0.13 0.69 0.13 96 1012.4
20260507055339 7 248 4.8 14.5 0.08 0.64 0.08 96 1012.3
20260507054827 7 248 4.8 14.5 0.08 0.64 0.08 95 1012.3
20260507054317 7 225 3.2 11.3 0.05 0.61 0.05 95 1012.3
20260507053804 7 225 3.2 6.4 0.05 0.61 0.05 96 1012.2
20260507053253 7 248 3.2 11.3 0.05 0.61 0.05 96 1012.2
20260507052740 7 292 3.2 14.5 0.05 0.61 0.05 96 1012.1
20260507052228 7 292 3.2 6.4 0.05 0.61 0.05 96 1012.0
20260507051717 7 292 3.2 6.4 0.05 0.61 0.05 95 1012.0
20260507051205 7 225 3.2 6.4 0.05 0.61 0.05 95 1011.9
20260507050651 7 225 3.2 6.4 0.05 0.61 0.05 95 1011.8
20260507050140 7 225 3.2 6.4 0.00 0.56 0.00 95 1011.7
20260507045627 7 248 3.2 6.4 0.00 0.56 0.00 94 1011.6
20260507045118 7 292 3.2 6.4 0.00 0.56 0.00 94 1011.6
20260507044605 7 270 3.2 6.4 0.00 0.56 0.00 94 1011.5
20260507044054 7 270 3.2 6.4 0.00 0.56 0.00 94 1011.4
20260507043545 7 270 3.2 6.4 0.00 0.56 0.00 94 1011.3
20260507043028 7 270 3.2 6.4 0.00 0.56 0.00 94 1011.3
20260507042516 7 248 3.2 6.4 0.00 0.56 0.00 94 1011.2
20260507042006 7 248 3.2 11.3 0.00 0.56 0.00 94 1011.1
20260507041452 7 248 3.2 6.4 0.00 0.56 0.00 94 1011.0
20260507040941 7 248 3.2 6.4 0.00 0.56 0.00 94 1011.0
20260507040428 7 248 3.2 6.4 0.00 0.56 0.00 94 1011.0
20260507035915 7 270 3.2 6.4 0.00 0.56 0.00 95 1011.0
20260507035405 7 248 3.2 3.2 0.00 0.56 0.00 95 1011.0
20260507034852 7 248 1.6 3.2 0.00 0.56 0.00 95 1010.9
20260507034341 7 248 1.6 6.4 0.00 0.56 0.00 95 1010.9
20260507033834 7 248 1.6 6.4 0.00 0.56 0.00 95 1010.8
20260507033317 7 248 3.2 6.4 0.00 0.56 0.00 95 1010.8
20260507032804 7 248 1.6 6.4 0.00 0.56 0.00 94 1010.7
20260507032254 7 248 1.6 6.4 0.00 0.56 0.00 95 1010.7
20260507031741 6 248 1.6 11.3 0.00 0.56 0.00 95 1010.7
20260507031229 7 248 3.2 6.4 0.00 0.56 0.00 95 1010.6
20260507030715 7 248 3.2 11.3 0.00 0.56 0.00 95 1010.6
20260507030213 7 248 3.2 11.3 0.00 0.56 0.00 94 1010.5
20260507025653 7 292 3.2 6.4 0.00 0.56 0.00 94 1010.5
20260507025141 7 270 3.2 6.4 0.00 0.56 0.00 95 1010.5
20260507024628 7 225 3.2 6.4 0.00 0.56 0.00 95 1010.4
20260507024118 6 270 3.2 14.5 0.00 0.56 0.00 96 1010.4
20260507023604 6 225 3.2 17.7 0.00 0.56 0.00 96 1010.4
20260507023056 6 248 3.2 6.4 0.00 0.56 0.00 97 1010.5
20260507022545 6 248 3.2 6.4 0.00 0.56 0.00 97 1010.5
20260507022028 6 292 3.2 6.4 0.00 0.56 0.00 98 1010.5
20260507021516 6 248 3.2 6.4 0.00 0.56 0.00 98 1010.4
20260507021006 6 248 1.6 6.4 0.00 0.56 0.00 99 1010.3
20260507020452 6 270 1.6 3.2 0.00 0.56 0.00 99 1010.3
20260507015942 6 270 1.6 6.4 0.00 0.56 0.00 99 1010.3
20260507015429 6 270 1.6 6.4 0.00 0.56 0.00 99 1010.4
20260507014917 5 0 0.0 0.0 0.00 0.56 0.00 99 1010.4
20260507014403 5 0 0.0 0.0 0.00 0.56 0.00 99 1010.4
20260507013854 6 292 0.0 3.2 0.00 0.56 0.00 99 1010.4
20260507013340 6 292 0.0 3.2 0.00 0.56 0.00 99 1010.4
20260507012818 6 292 0.0 3.2 0.00 0.56 0.00 99 1010.3
20260507012306 6 0 0.0 0.0 0.00 0.56 0.00 99 1010.3
20260507011753 5 292 0.0 0.0 0.00 0.56 0.00 99 1010.2
20260507011241 6 292 0.0 3.2 0.00 0.56 0.00 99 1010.1
20260507010734 6 292 0.0 0.0 0.00 0.56 0.00 99 1010.1
20260507010216 6 292 0.0 3.2 0.00 0.56 0.00 98 1010.1
20260507005707 6 292 0.0 3.2 0.00 0.56 0.00 98 1010.1
20260507005151 6 292 0.0 3.2 0.00 0.56 0.00 98 1010.2
20260507004641 6 292 1.6 3.2 0.00 0.56 0.00 98 1010.2
20260507004128 6 292 1.6 3.2 0.00 0.56 0.00 98 1010.2
20260507003618 6 292 1.6 3.2 0.00 0.56 0.00 98 1010.2
20260507003104 6 292 1.6 6.4 0.00 0.56 0.00 98 1010.0
20260507002554 6 292 0.0 3.2 0.00 0.56 0.00 98 1010.1
20260507002043 6 0 0.0 0.0 0.00 0.56 0.00 98 1010.0
20260507001528 6 0 0.0 0.0 0.00 0.56 0.00 98 1010.1
20260507001016 6 0 0.0 0.0 0.00 0.56 0.00 98 1010.1
20260507000505 6 0 0.0 0.0 0.00 0.56 0.00 98 1010.0
20260506235953 6 0 0.0 0.0 0.00 0.56 0.00 98 1010.0
20260506235440 6 0 0.0 0.0 0.00 0.56 0.00 98 1010.1
20260506234928 6 0 0.0 0.0 0.00 0.56 0.00 97 1010.1
20260506234417 6 0 0.0 0.0 0.00 0.56 0.00 97 1010.0
20260506233904 6 292 0.0 3.2 0.00 0.56 0.00 97 1010.1
20260506233354 6 0 0.0 0.0 0.00 0.56 0.00 97 1010.0
20260506232840 6 0 0.0 0.0 0.00 0.56 0.00 97 1010.0
20260506232329 7 0 0.0 0.0 0.00 0.56 0.00 97 1010.1
20260506231816 7 0 0.0 0.0 0.00 0.56 0.00 97 1010.1
20260506231305 7 292 0.0 3.2 0.00 0.56 0.00 97 1010.0
20260506230752 7 292 1.6 3.2 0.00 0.56 0.00 97 1010.0
20260506230241 7 292 1.6 3.2 0.00 0.56 0.00 97 1009.9
20260506225728 7 292 1.6 3.2 0.00 0.56 0.00 97 1010.0
20260506225222 7 292 1.6 3.2 0.00 0.56 0.00 97 1010.1
20260506224704 7 292 1.6 3.2 0.00 0.56 0.00 97 1010.0
20260506224152 7 292 1.6 6.4 0.00 0.56 0.00 97 1010.0
20260506223639 7 292 1.6 3.2 0.00 0.56 0.00 97 1010.0
20260506223130 7 292 1.6 3.2 0.00 0.56 0.00 97 1009.9
20260506222615 7 292 1.6 3.2 0.00 0.56 0.00 97 1009.9
20260506222106 7 292 1.6 3.2 0.00 0.56 0.00 97 1009.8
20260506221553 7 292 1.6 3.2 0.00 0.56 0.00 97 1009.8
20260506221041 7 292 1.6 3.2 0.00 0.56 0.00 96 1009.7
20260506220527 7 315 1.6 3.2 0.00 0.56 0.00 96 1009.7
20260506220018 7 315 0.0 6.4 0.00 0.56 0.00 96 1009.6
20260506215504 7 315 0.0 3.2 0.00 0.56 0.56 96 1009.6
20260506215003 7 0 0.0 0.0 0.00 0.56 0.56 96 1009.5
20260506214439 7 315 0.0 0.0 0.00 0.56 0.56 95 1009.5
20260506213930 8 315 1.6 6.4 0.00 0.56 0.56 95 1009.4
20260506213416 8 315 1.6 3.2 0.00 0.56 0.56 95 1009.3
20260506212907 8 315 3.2 6.4 0.00 0.56 0.56 95 1009.3
20260506212351 8 292 3.2 11.3 0.00 0.56 0.56 95 1009.3
20260506211841 8 248 3.2 6.4 0.00 0.56 0.56 95 1009.2
20260506211328 8 248 4.8 11.3 0.00 0.56 0.56 95 1009.2
20260506210818 8 248 4.8 14.5 0.00 0.56 0.56 95 1009.2
20260506210302 8 248 3.2 6.4 0.00 0.56 0.56 95 1009.1
20260506205754 8 248 3.2 11.3 0.00 0.56 0.56 95 1009.1
20260506205241 8 270 3.2 11.3 0.00 0.56 0.56 95 1009.2
20260506204729 8 248 3.2 6.4 0.00 0.56 0.56 95 1009.2
20260506204216 8 248 1.6 6.4 0.00 0.56 0.56 95 1009.1
20260506203704 8 248 1.6 11.3 0.00 0.56 0.56 95 1009.2
20260506203152 8 248 1.6 3.2 0.00 0.56 0.56 95 1009.1
20260506202642 8 248 3.2 6.4 0.00 0.56 0.56 95 1009.1
20260506202129 8 248 1.6 6.4 0.00 0.56 0.56 95 1009.0
20260506201616 8 248 3.2 6.4 0.00 0.56 0.56 94 1009.1
20260506201104 8 248 3.2 11.3 0.00 0.56 0.56 94 1009.0
20260506200554 8 248 4.8 11.3 0.00 0.56 0.56 95 1009.0
20260506200040 8 248 4.8 11.3 0.00 0.56 0.56 95 1009.0
20260506195530 8 270 3.2 6.4 0.00 0.56 0.56 96 1008.9
20260506195017 8 270 3.2 6.4 0.00 0.56 0.56 96 1008.8
20260506194505 8 270 1.6 6.4 0.00 0.56 0.56 96 1008.7
20260506193952 8 270 1.6 6.4 0.00 0.56 0.56 96 1008.7
20260506193441 8 270 1.6 6.4 0.00 0.56 0.56 96 1008.6
20260506192928 8 270 1.6 6.4 0.00 0.56 0.56 95 1008.6
20260506192420 8 270 1.6 6.4 0.00 0.56 0.56 95 1008.4
20260506191904 9 270 3.2 3.2 0.00 0.56 0.56 94 1008.3
20260506191353 9 270 3.2 6.4 0.00 0.56 0.56 94 1008.2
20260506190329 9 270 3.2 6.4 0.00 0.56 0.56 95 1008.2
20260506185816 9 270 3.2 6.4 0.00 0.56 0.56 95 1008.2
20260506185307 9 68 4.8 11.3 0.00 0.56 0.56 95 1008.2
20260506184752 9 270 3.2 11.3 0.00 0.56 0.56 95 1008.0
20260506184242 9 248 3.2 6.4 0.05 0.56 0.56 95 1007.9
20260506183728 9 248 3.2 6.4 0.05 0.56 0.56 95 1007.8
20260506183227 9 202 3.2 11.3 0.05 0.56 0.56 95 1007.8
20260506182703 9 248 3.2 14.5 0.05 0.56 0.56 95 1007.8
20260506182153 10 248 3.2 6.4 0.05 0.56 0.56 95 1007.6
20260506181641 10 225 3.2 11.3 0.05 0.56 0.56 95 1007.7
20260506181129 10 202 3.2 6.4 0.05 0.56 0.56 95 1007.6
20260506180615 10 202 3.2 6.4 0.05 0.56 0.56 95 1007.5
20260506180107 10 202 3.2 6.4 0.05 0.56 0.56 95 1007.4
20260506175553 10 225 3.2 11.3 0.05 0.56 0.56 95 1007.3
20260506175031 10 225 3.2 6.4 0.08 0.56 0.56 95 1007.3
20260506174516 10 248 1.6 11.3 0.08 0.56 0.56 94 1007.1
20260506174006 11 270 1.6 3.2 0.05 0.51 0.51 95 1007.1
20260506173452 11 270 1.6 3.2 0.05 0.51 0.51 95 1007.1
20260506172942 11 270 0.0 3.2 0.05 0.51 0.51 95 1006.9
20260506172428 11 270 0.0 0.0 0.08 0.51 0.51 95 1006.8
20260506171916 11 270 1.6 3.2 0.08 0.51 0.51 95 1006.8
20260506171403 11 270 1.6 6.4 0.08 0.51 0.51 95 1006.7
20260506170853 11 270 1.6 3.2 0.13 0.51 0.51 95 1006.8
20260506170346 11 270 1.6 3.2 0.20 0.51 0.51 94 1006.8
20260506165829 11 270 1.6 6.4 0.20 0.51 0.51 94 1006.6
20260506165318 11 270 3.2 6.4 0.23 0.51 0.51 94 1006.7
20260506164805 11 270 3.2 6.4 0.33 0.48 0.48 94 1006.7
20260506164253 11 292 3.2 11.3 0.43 0.48 0.48 94 1006.7
20260506163742 11 225 3.2 6.4 0.48 0.48 0.48 94 1006.7
20260506163228 11 270 3.2 3.2 0.48 0.48 0.48 94 1006.6
20260506162718 11 270 1.6 3.2 0.48 0.48 0.48 94 1006.6
20260506162205 11 270 1.6 3.2 0.43 0.43 0.43 94 1006.6
20260506161653 11 270 3.2 6.4 0.43 0.43 0.43 93 1006.5
20260506161139 11 270 3.2 6.4 0.43 0.43 0.43 92 1006.4
20260506160630 11 248 3.2 6.4 0.41 0.41 0.41 93 1006.4
20260506160104 11 248 3.2 6.4 0.33 0.33 0.33 92 1006.4
20260506155553 11 248 3.2 6.4 0.33 0.33 0.33 91 1006.4
20260506155046 11 248 3.2 6.4 0.28 0.28 0.28 90 1006.3
20260506154529 12 248 3.2 11.3 0.15 0.15 0.15 88 1006.1
20260506154018 12 158 3.2 11.3 0.05 0.05 0.05 83 1005.8
20260506153506 13 248 3.2 14.5 0.00 0.00 0.00 76 1005.5
20260506152951 14 270 3.2 11.3 0.00 0.00 0.00 70 1005.0
20260506152441 16 248 3.2 3.2 0.00 0.00 0.00 65 1004.9
20260506151928 16 248 3.2 11.3 0.00 0.00 0.00 60 1004.6
20260506151417 17 248 3.2 11.3 0.00 0.00 0.00 57 1004.3
20260506150906 18 225 3.2 3.2 0.00 0.00 0.00 55 1004.1
20260506150355 19 225 1.6 3.2 0.00 0.00 0.00 54 1004.2
20260506145840 20 225 3.2 6.4 0.00 0.00 0.00 52 1004.2
20260506145329 20 225 3.2 3.2 0.00 0.00 0.00 53 1004.2
20260506144817 20 225 3.2 6.4 0.00 0.00 0.00 51 1004.3
20260506144304 20 225 3.2 3.2 0.00 0.00 0.00 55 1004.4
20260506143751 21 225 3.2 6.4 0.00 0.00 0.00 52 1004.2
20260506143243 21 225 3.2 6.4 0.00 0.00 0.00 55 1004.2
20260506142728 20 225 1.6 3.2 0.00 0.00 0.00 57 1004.3
20260506142217 18 225 3.2 6.4 0.00 0.00 0.00 60 1004.5
20260506141705 18 225 3.2 11.3 0.00 0.00 0.00 61 1004.4
20260506141154 18 225 1.6 6.4 0.00 0.00 0.00 61 1004.4
20260506140642 18 225 1.6 6.4 0.00 0.00 0.00 60 1004.5
20260506140129 18 225 1.6 6.4 0.00 0.00 0.00 59 1004.5
20260506135616 18 225 1.6 3.2 0.00 0.00 0.00 60 1004.4
20260506135107 18 225 1.6 6.4 0.00 0.00 0.00 58 1004.5
20260506134553 18 225 1.6 3.2 0.00 0.00 0.00 57 1004.7
20260506134041 18 112 1.6 3.2 0.00 0.00 0.00 58 1004.7
20260506133528 18 112 0.0 3.2 0.00 0.05 0.00 58 1004.7
20260506133017 18 112 0.0 3.2 0.00 0.05 0.00 58 1004.7
20260506132506 18 112 1.6 3.2 0.00 0.05 0.00 58 1004.7
20260506131953 18 112 1.6 3.2 0.00 0.05 0.00 58 1004.6
20260506131440 18 112 0.0 0.0 0.00 0.05 0.00 57 1004.6